User: anonymous   Login
Location: Unspecified
(0.0000°N, 0.0000°E)
Time: 07:08:29
(UTC+00:00)
Language:

USA 162 - Orbit

View from above orbital plane
View from above orbital plane
View from above satellite
View from above satellite

Ground track
Ground track

The orbit data is extracted from the following two-line orbital elements,

1 26948U 01046A   17269.21700231 0.00000000  00000-0  00000-0 0    04
2 26948   9.4060  53.7030 0011690 194.8300 164.8350  1.00270000    07
Epoch (UTC): 26 September 2017 05:12:29
Eccentricity: 0.0011690
inclination: 9.4060°
perigee height: 35737 km
apogee height: 35836 km
right ascension of ascending node: 53.7030°
argument of perigee: 194.8300°
revolutions per day: 1.00270000
mean anomaly at epoch: 164.8350°
orbit number at epoch: 0

The dashed part of the orbit path shows where the satellite is in the earth's shadow,  

DLR